RYR522N LFOB-EIDW

Flight info

Callsign RYR522N
Flight time N/A
Altitude 40000
Route ATREX DCT VESAN DCT RATUK DCT SOVAT L613 SANDY L722 ICTAM T421 DIDZA DCT CESQA DCT BIBPE DCT OKTAD DCT MEDOG DCT KRAGY DCT PEMOB M17 VATRY VATRY4L
Aircraft B38M/M-SADE3FGILRWY/SB1

Departure

Time 2026-04-20 17:13
Airport Beauvais-Tillé airport (LFOB)

Arrival

Time N/A
Airport Dublin Airport (EIDW)
Time Latitude Longitude Altitude Speed Heading
2026-04-20 16:43 49.45827 2.11116 350 ft 0 kts 33°
2026-04-20 17:04 49.45822 2.11111 351 ft 2 kts 31°
2026-04-20 17:05 49.45807 2.11099 361 ft 2 kts 23°
2026-04-20 17:05 49.45792 2.11091 355 ft 2 kts
2026-04-20 17:05 49.45775 2.11091 359 ft 2 kts 342°
2026-04-20 17:05 49.45761 2.11104 353 ft 2 kts 313°
2026-04-20 17:06 49.45751 2.11124 358 ft 2 kts 304°
2026-04-20 17:06 49.45747 2.11134 355 ft 0 kts 303°
2026-04-20 17:09 49.45748 2.11133 350 ft 1 kts 303°
2026-04-20 17:09 49.45762 2.11100 358 ft 5 kts 304°
2026-04-20 17:09 49.45785 2.11047 355 ft 7 kts 304°
2026-04-20 17:10 49.45783 2.10988 358 ft 6 kts 229°
2026-04-20 17:10 49.45769 2.10973 355 ft 0 kts 207°
2026-04-20 17:10 49.45768 2.10972 355 ft 1 kts 207°
2026-04-20 17:11 49.45752 2.10959 352 ft 4 kts 207°
2026-04-20 17:11 49.45720 2.10933 357 ft 7 kts 208°
2026-04-20 17:11 49.45671 2.10892 352 ft 9 kts 208°
2026-04-20 17:11 49.45640 2.10849 359 ft 4 kts 198°
2026-04-20 17:12 49.45622 2.10867 356 ft 1 kts 123°
2026-04-20 17:12 49.45620 2.10872 356 ft 8 kts 122°
2026-04-20 17:13 49.45413 2.11349 353 ft 97 kts 123°
2026-04-20 17:13 49.44898 2.12532 352 ft 164 kts 118°
2026-04-20 17:13 49.44187 2.14038 925 ft 182 kts 120°
2026-04-20 17:13 49.43774 2.15771 1969 ft 165 kts 83°
2026-04-20 17:14 49.44303 2.17331 2684 ft 178 kts 36°
2026-04-20 17:14 49.45488 2.18162 3451 ft 199 kts 18°
2026-04-20 17:14 49.46936 2.18350 4218 ft 224 kts 352°
2026-04-20 17:14 49.48440 2.17443 5013 ft 246 kts 341°
2026-04-20 17:15 49.50155 2.17148 5756 ft 257 kts 18°
2026-04-20 17:15 49.51649 2.18472 6978 ft 251 kts 35°
2026-04-20 17:15 49.53207 2.19848 7803 ft 265 kts 26°
2026-04-20 17:15 49.54886 2.21090 8769 ft 273 kts 24°
2026-04-20 17:16 49.56620 2.22317 9510 ft 276 kts 21°
2026-04-20 17:16 49.58386 2.23522 10433 ft 281 kts 20°
2026-04-20 17:16 49.60224 2.24782 11049 ft 299 kts 21°
2026-04-20 17:16 49.62185 2.26124 11573 ft 317 kts 20°
2026-04-20 17:17 49.64251 2.27509 12233 ft 329 kts 20°
2026-04-20 17:17 49.66358 2.28904 13175 ft 331 kts 19°
2026-04-20 17:17 49.68495 2.30306 14065 ft 335 kts 18°
2026-04-20 17:17 49.70651 2.31713 14840 ft 338 kts 18°
2026-04-20 17:18 49.72824 2.33132 15641 ft 341 kts 18°
2026-04-20 17:18 49.75030 2.34572 16399 ft 345 kts 17°
2026-04-20 17:18 49.77291 2.35749 17122 ft 340 kts
2026-04-20 17:18 49.79616 2.35686 17841 ft 333 kts 344°
2026-04-20 17:19 49.81830 2.34678 18542 ft 333 kts 338°
2026-04-20 17:19 49.84035 2.33535 19163 ft 335 kts 336°
2026-04-20 17:19 49.86237 2.32335 19777 ft 337 kts 335°
2026-04-20 17:19 49.88452 2.31096 20376 ft 340 kts 335°
2026-04-20 17:20 49.90682 2.29827 20965 ft 342 kts 334°
2026-04-20 17:20 49.92919 2.28541 21563 ft 345 kts 334°
2026-04-20 17:20 49.95179 2.27234 22176 ft 347 kts 334°
2026-04-20 17:20 49.97444 2.25922 22777 ft 349 kts 333°
2026-04-20 17:21 49.99731 2.24593 23351 ft 352 kts 333°
2026-04-20 17:21 50.02035 2.23254 23903 ft 355 kts 333°
2026-04-20 17:21 50.04359 2.21902 24382 ft 358 kts 333°
2026-04-20 17:21 50.06700 2.20539 24862 ft 360 kts 333°
2026-04-20 17:22 50.09058 2.19162 25341 ft 363 kts 333°
2026-04-20 17:22 50.11432 2.17776 25825 ft 366 kts 333°
2026-04-20 17:22 50.13822 2.16379 26298 ft 368 kts 333°
2026-04-20 17:22 50.16232 2.14969 26752 ft 371 kts 333°
2026-04-20 17:23 50.18658 2.13548 27256 ft 373 kts 333°
2026-04-20 17:23 50.21080 2.12127 27817 ft 373 kts 332°
2026-04-20 17:23 50.23523 2.10693 28226 ft 376 kts 332°
2026-04-20 17:23 50.25980 2.09249 28661 ft 379 kts 332°
2026-04-20 17:24 50.28455 2.07793 29068 ft 381 kts 332°
2026-04-20 17:24 50.30941 2.06329 29470 ft 384 kts 332°
2026-04-20 17:24 50.33454 2.04847 29877 ft 387 kts 332°
2026-04-20 17:24 50.35975 2.03331 30255 ft 387 kts 329°
2026-04-20 17:25 50.38209 2.01090 30517 ft 380 kts 315°
2026-04-20 17:25 50.40231 1.98375 30741 ft 385 kts 316°
2026-04-20 17:25 50.42279 1.95661 31132 ft 386 kts 315°
2026-04-20 17:25 50.44329 1.92907 31420 ft 389 kts 315°
2026-04-20 17:26 50.46386 1.90119 31705 ft 392 kts 315°
2026-04-20 17:26 50.48449 1.87309 32078 ft 393 kts 315°
2026-04-20 17:26 50.50512 1.84491 32397 ft 394 kts 315°
2026-04-20 17:26 50.52581 1.81660 32764 ft 395 kts 315°
2026-04-20 17:27 50.54628 1.78856 33122 ft 396 kts 315°
2026-04-20 17:27 50.56703 1.76010 33479 ft 397 kts 315°
2026-04-20 17:27 50.58782 1.73155 33838 ft 397 kts 315°
2026-04-20 17:27 50.60867 1.70289 34190 ft 398 kts 316°
2026-04-20 17:28 50.62950 1.67420 34499 ft 399 kts 316°
2026-04-20 17:28 50.65047 1.64530 34763 ft 402 kts 315°
2026-04-20 17:28 50.67157 1.61614 34945 ft 405 kts 316°
2026-04-20 17:28 50.69282 1.58675 35204 ft 406 kts 316°
2026-04-20 17:29 50.71408 1.55731 35463 ft 408 kts 316°
2026-04-20 17:29 50.73544 1.52769 35728 ft 409 kts 316°
2026-04-20 17:29 50.75687 1.49793 35981 ft 411 kts 316°
2026-04-20 17:29 50.77835 1.46809 36232 ft 412 kts 316°
2026-04-20 17:30 50.79989 1.43813 36483 ft 413 kts 316°
2026-04-20 17:30 50.82152 1.40802 36728 ft 415 kts 316°
2026-04-20 17:30 50.84314 1.37788 36982 ft 415 kts 316°
2026-04-20 17:30 50.86483 1.34759 37240 ft 416 kts 316°
2026-04-20 17:31 50.88658 1.31718 37431 ft 419 kts 316°
2026-04-20 17:31 50.90850 1.28651 37573 ft 422 kts 316°
2026-04-20 17:31 50.93052 1.25564 37786 ft 423 kts 316°
2026-04-20 17:31 50.95256 1.22473 37994 ft 424 kts 316°
2026-04-20 17:32 50.97471 1.19359 38210 ft 425 kts 317°
2026-04-20 17:32 50.99686 1.16243 38421 ft 426 kts 317°
2026-04-20 17:32 51.01906 1.13114 38626 ft 427 kts 317°
2026-04-20 17:32 51.04131 1.09966 38822 ft 428 kts 315°
2026-04-20 17:33 51.06022 1.06348 39008 ft 425 kts 299°
2026-04-20 17:33 51.07241 1.02078 39158 ft 425 kts 291°
2026-04-20 17:33 51.08299 0.97673 39241 ft 428 kts 290°
2026-04-20 17:33 51.09322 0.93222 39390 ft 429 kts 290°
2026-04-20 17:34 51.10322 0.88755 39566 ft 429 kts 290°
2026-04-20 17:34 51.11307 0.84272 39738 ft 429 kts 289°
2026-04-20 17:34 51.12283 0.79782 39899 ft 430 kts 289°
2026-04-20 17:34 51.13257 0.75283 40067 ft 430 kts 289°
2026-04-20 17:35 51.14228 0.70780 40225 ft 430 kts 289°
2026-04-20 17:35 51.15200 0.66264 40359 ft 431 kts 289°
2026-04-20 17:35 51.16169 0.61748 40391 ft 431 kts 289°
2026-04-20 17:36 51.18102 0.52717 40397 ft 430 kts 289°
2026-04-20 17:36 51.20013 0.43746 40396 ft 430 kts 289°
2026-04-20 17:37 51.21929 0.34710 40400 ft 430 kts 289°
2026-04-20 17:37 51.23840 0.25663 40384 ft 430 kts 289°
2026-04-20 17:38 51.25742 0.16611 40350 ft 430 kts 289°
2026-04-20 17:38 51.27637 0.07550 40317 ft 430 kts 289°
2026-04-20 17:39 51.29526 -0.01516 40257 ft 430 kts 289°
2026-04-20 17:39 51.31405 -0.10580 40256 ft 429 kts 289°
2026-04-20 17:40 51.33271 -0.19623 40262 ft 429 kts 289°
2026-04-20 17:40 51.35139 -0.28714 40262 ft 431 kts 289°
2026-04-20 17:41 51.37006 -0.37843 40266 ft 432 kts 289°
2026-04-20 17:41 51.38866 -0.46982 40265 ft 432 kts 289°
2026-04-20 17:42 51.40719 -0.56127 40266 ft 432 kts 288°
2026-04-20 17:42 51.42564 -0.65273 40263 ft 432 kts 288°
2026-04-20 17:43 51.44404 -0.74441 40260 ft 432 kts 288°
2026-04-20 17:43 51.46235 -0.83604 40256 ft 432 kts 288°
2026-04-20 17:44 51.48061 -0.92788 40256 ft 432 kts 288°
2026-04-20 17:44 51.49878 -1.01964 40258 ft 431 kts 288°
2026-04-20 17:45 51.51686 -1.11131 40266 ft 431 kts 288°
2026-04-20 17:45 51.54004 -1.19941 40281 ft 428 kts 300°
2026-04-20 17:46 51.56896 -1.28342 40268 ft 430 kts 299°
2026-04-20 17:46 51.59812 -1.36771 40265 ft 433 kts 299°
2026-04-20 17:47 51.62216 -1.45638 40269 ft 433 kts 292°
2026-04-20 17:47 51.64390 -1.54666 40262 ft 432 kts 291°
2026-04-20 17:48 51.66541 -1.63692 40267 ft 432 kts 291°
2026-04-20 17:48 51.68688 -1.72744 40266 ft 432 kts 291°
2026-04-20 17:49 51.70825 -1.81796 40266 ft 432 kts 291°
2026-04-20 17:49 51.72493 -1.91095 40279 ft 433 kts 285°
2026-04-20 17:50 51.73912 -2.00531 40264 ft 433 kts 284°
2026-04-20 17:50 51.75309 -2.09976 40266 ft 433 kts 284°
2026-04-20 17:51 51.76696 -2.19424 40265 ft 433 kts 284°
2026-04-20 17:51 51.78076 -2.28878 40266 ft 433 kts 284°
2026-04-20 17:52 51.79430 -2.38212 40268 ft 419 kts 284°
2026-04-20 17:52 51.80725 -2.47186 40264 ft 405 kts 284°
2026-04-20 17:53 51.81961 -2.55936 40253 ft 395 kts 283°
2026-04-20 17:53 51.83138 -2.64605 40256 ft 396 kts 283°